星链-5043 (STARLINK-5043 )

导读

STARLINK-5043是美国星链互联网卫星项目中的一员,由SpaceX在2022年9月24日发射,该卫星属于星链低轨卫星星座的组成部分,运行在近地轨道,主要用于为全球提供高速互联网接入服务,扩大星链网络覆盖范围,提升星座服务的容量与稳定性,是SpaceX星座组网建设的一环。

基本信息
目录编号:
53894
目录名称:
STARLINK-5043
国际标识:
2022-119J
轨道中心:
EARTH
卫星名称:
星链-5043
卫星全名:
星链-5043 (STARLINK-5043 )
卫星状态:
在轨 (已飞行1449 天)
发射日期:
2022-09-24 UTC
国别 :
美国 (US)
星等 :
--
该卫星已列入 空间交会检测服务 Space Conjunction Data Service (SCDS) ,当前飞行风险评估等级: 无高风险
轨道信息
数据来源 国际轨道数据
星历时间: 2026-09-12T12:28:22+0800
7小时前
查看轨道信息
半长轴: 6848.881km
偏心率: 0.0001366
轨道倾角: 53.161°
近地点辐角 95.277°
升交点赤经 185.283°
平近点角 264.839°
近地点: 469.808km
远地点: 471.68km
周期: 94.013分钟
每日圈数: 15.316989
详细信息
固有亮度:
5
最大亮度:
2.5
卫星平台:
Starlink v1.5
覆盖范围:
全球
运营商:
太空探索技术公司
运营商所在国:
美国
制造商(研发单位):
太空探索技术公司
制造商所在国:
美国
使用方式:
暂无
卫星简介
星链(Starlink)计划是由太空探索技术公司(SpaceX)提出的一个巨型低轨卫星互联网星座项目,计划在2019年至2024年间在太空搭建由约1.2万颗卫星组成的“星链”网络,其中1584颗将部署在地球上空550千米处的近地轨道,并从2020年开始工作。该卫星仍在工作。
2D轨道图
3D轨道图
轨道高度分析图
轨道倾角分析图
轨道综合分析图
查看轨道综合分析图
交会数据列表
事件ID 空间交会对象 最接近时刻(TCA) 交会距离 交会风险概率(CRP) 交会风险指数(CRI) 操作
CDM_260913-122405-389406-267523
2026-09-13T
12:24:28+0000
1.860 km
极远距离
3.437113E-6 低风险 0.46
CDM_260913-053405-389406-770421
2026-09-13T
05:34:43+0000
2.326 km
极远距离
2.012427E-6 低风险 0.41
CDM_260913-214405-389406-552522
2026-09-13T
21:44:01+0000
2.512 km
极远距离
1.700047E-6 低风险 0.4
CDM_260912-032405-389406-552322
2026-09-12T
03:24:31+0000
2.858 km
极远距离
1.3714E-6 低风险 0.38
CDM_260907-010905-389406-758921
2026-09-07T
01:09:38+0000
2.920 km
极远距离
1.2387E-6 低风险 0.37
与全量物体交会距离演化趋势
与全量物体交会风险概率演化趋势